Location: Spor
(46.2167°N, 11.0500°E)
Time: 22:58:19
(UTC+00:00)

SL-16 R/B - Pass Details

Date: 07 June 2020
Orbit: 986 x 1006 km, 99.5° (Epoch: 11 July)

Event Time Altitude Azimuth Distance (km) Brightness Sun altitude
Exits shadow 01:55:28 16° 212° (SSW) 2,356 3.8 -12.0°
Maximum altitude 01:59:35 31° 265° (W) 1,660 3.4 -11.6°
Drops below altitude 10° 02:05:00 10° 326° (NNW) 2,761 5.1 -11.0°
Sets 02:07:49 0° 337° (NNW) 3,718 5.9 -10.7°
